sat.trackr.live / text

‹ back to catalog

STARLINK-32487

NORAD 61963 · 2024-210E

PAYLOAD ACTIVE UNKNOWN

§ Identity

Operator
Country
US
Launch date
2024-11-14
Launch site
AFETR
Launch vehicle
Mass (kg)
RCS (m²)

Purposes: comms

External: N2YO · Heavens-Above · Gunter

§ Orbital elements

Epoch: 2026-09-21T02:17:06.528480Z

Period
94.27 min
Inclination
43.0066°
Eccentricity
0.0002411
Mean motion
15.27561670 rev/d
Perigee alt
481.4 km
Apogee alt
484.8 km
Semi-major
6,861.2 km
B*
-4.7683e-5
RAAN
156.3653°
Arg perigee
262.4742°
Mean anomaly
97.5835°
Rev number
10,479

§ Raw data

STARLINK-324871 61963U 24210E   26264.09521445 -.00001574  00000+0 -47683-4 0  99942 61963  43.0066 156.3653 0002411 262.4742  97.5835 15.27561670104798

JSON: /api/v1/satellites/61963 · /tle

For live sub-satellite position, see the globe view (requires WebGL).

§ Visibility from observer

Set your observer location to see the next 7 days of passes ≥ 10°. The values pass through the URL so the page stays shareable.

No JS? Fill the form by hand. The geolocation button needs JavaScript.